Terug naar catalogus

STARLINK-31602

ActiefCommunicatieVLEO
NORAD 59202·PAYLOAD·🇺🇸 United States

Gelanceerd Mar 11, 2024 vanaf Vandenberg Space Force Base

Loading…

Volgende Passages (komende 24 uur)

TLE

VersSource: CelesTrak SupGP

Epoch: Sep 15, 2026, 03:07 UTC

1 59202C 24046B   26258.13034722  .00073711  00000+0  21768-2 0  2581
2 59202  53.1601 351.0495 0001144  86.5443 330.0006 15.34368266    10

Volg STARLINK-31602 in realtime met AllMySat

Download on the App Store